| time (UTC) | temp F | wind direction | speed MPH | gust MPH | rain 1hr in | rain 24hr in | rain mn in | humidity % | barometer mb |
| 20260504050427 | 56 | 149 | 1.0 | 2.0 | 0.00 | 0.00 | 0.00 | 46 | 997.9 |
| 20260504045924 | 55 | 154 | 2.0 | 2.0 | 0.00 | 0.00 | 0.00 | 46 | 998.1 |
| 20260504045420 | 55 | 150 | 1.0 | 2.0 | 0.00 | 0.00 | 0.00 | 47 | 998.1 |
| 20260504044916 | 55 | 145 | 1.0 | 2.0 | 0.00 | 0.00 | 0.00 | 47 | 998.4 |
| 20260504044414 | 55 | 157 | 2.0 | 2.0 | 0.00 | 0.00 | 0.00 | 46 | 998.4 |
| 20260504043911 | 55 | 145 | 1.0 | 2.0 | 0.00 | 0.00 | 0.00 | 46 | 998.3 |
| 20260504043408 | 55 | 147 | 1.0 | 2.0 | 0.00 | 0.00 | 0.00 | 46 | 998.7 |
| 20260504042906 | 55 | 150 | 1.0 | 2.0 | 0.00 | 0.00 | 0.00 | 46 | 998.7 |
| 20260504042402 | 55 | 139 | 0.0 | 2.0 | 0.00 | 0.00 | 0.00 | 46 | 998.9 |
| 20260504041858 | 55 | 140 | 1.0 | 2.0 | 0.00 | 0.00 | 0.00 | 45 | 998.8 |
| 20260504041354 | 55 | 154 | 1.0 | 2.0 | 0.00 | 0.00 | 0.00 | 45 | 999.0 |
| 20260504040850 | 55 | 147 | 1.0 | 2.0 | 0.00 | 0.00 | 0.00 | 45 | 999.2 |
| 20260504040348 | 56 | 139 | 1.0 | 2.0 | 0.00 | 0.00 | 0.00 | 44 | 999.1 |
| 20260504035844 | 55 | 142 | 1.0 | 2.0 | 0.00 | 0.00 | 0.00 | 44 | 999.3 |
| 20260504035342 | 55 | 134 | 2.0 | 3.0 | 0.00 | 0.00 | 0.00 | 45 | 999.6 |
| 20260504034838 | 55 | 140 | 1.0 | 1.0 | 0.00 | 0.00 | 0.00 | 46 | 999.8 |
| 20260504034336 | 55 | 139 | 0.0 | 1.0 | 0.00 | 0.00 | 0.00 | 46 | 999.7 |
| 20260504033833 | 55 | 139 | 1.0 | 1.0 | 0.00 | 0.00 | 0.00 | 46 | 999.6 |
| 20260504033331 | 54 | 138 | 0.0 | 1.0 | 0.00 | 0.00 | 0.00 | 46 | 999.9 |
| 20260504032827 | 54 | 139 | 0.0 | 1.0 | 0.00 | 0.00 | 0.00 | 45 | 1000.1 |
| 20260504032325 | 54 | 138 | 0.0 | 1.0 | 0.00 | 0.00 | 0.00 | 47 | 1000.2 |
| 20260504031821 | 55 | 139 | 0.0 | 1.0 | 0.00 | 0.00 | 0.00 | 47 | 1000.4 |
| 20260504031318 | 55 | 137 | 0.0 | 1.0 | 0.00 | 0.00 | 0.00 | 44 | 1000.2 |
| 20260504030814 | 55 | 138 | 0.0 | 1.0 | 0.00 | 0.00 | 0.00 | 45 | 1000.5 |
| 20260504030312 | 55 | 137 | 0.0 | 0.0 | 0.00 | 0.00 | 0.00 | 44 | 1000.6 |
| 20260504025808 | 55 | 137 | 0.0 | 0.0 | 0.00 | 0.00 | 0.00 | 44 | 1000.7 |
| 20260504025306 | 55 | 137 | 0.0 | 0.0 | 0.00 | 0.00 | 0.00 | 43 | 1000.8 |
| 20260504024802 | 55 | 137 | 0.0 | 0.0 | 0.00 | 0.00 | 0.00 | 43 | 1000.8 |
| 20260504024258 | 55 | 137 | 0.0 | 0.0 | 0.00 | 0.00 | 0.00 | 42 | 1000.7 |
| 20260504023755 | 56 | 137 | 0.0 | 0.0 | 0.00 | 0.00 | 0.00 | 43 | 1000.7 |
| 20260504023251 | 56 | 137 | 0.0 | 0.0 | 0.00 | 0.00 | 0.00 | 42 | 1000.8 |
| 20260504022748 | 57 | 137 | 0.0 | 0.0 | 0.00 | 0.00 | 0.00 | 41 | 1000.8 |
| 20260504022244 | 57 | 137 | 0.0 | 0.0 | 0.00 | 0.00 | 0.00 | 40 | 1000.7 |
| 20260504021741 | 58 | 137 | 0.0 | 1.0 | 0.00 | 0.00 | 0.00 | 40 | 1000.7 |
| 20260504021238 | 58 | 138 | 0.0 | 1.0 | 0.00 | 0.00 | 0.00 | 40 | 1000.9 |
| 20260504020735 | 59 | 138 | 0.0 | 0.0 | 0.00 | 0.00 | 0.00 | 39 | 1001.2 |
| 20260504020232 | 59 | 138 | 0.0 | 2.0 | 0.00 | 0.00 | 0.00 | 39 | 1000.9 |
| 20260504015728 | 60 | 130 | 1.0 | 1.0 | 0.00 | 0.00 | 0.00 | 38 | 1001.1 |
| 20260504015225 | 60 | 129 | 0.0 | 1.0 | 0.00 | 0.00 | 0.00 | 36 | 1001.2 |
| 20260504014720 | 60 | 132 | 0.0 | 1.0 | 0.00 | 0.00 | 0.00 | 37 | 1000.9 |
| 20260504014217 | 61 | 132 | 0.0 | 2.0 | 0.00 | 0.00 | 0.00 | 36 | 1000.9 |
| 20260504013715 | 61 | 136 | 0.0 | 1.0 | 0.00 | 0.00 | 0.00 | 36 | 1001.1 |
| 20260504013212 | 61 | 132 | 0.0 | 0.0 | 0.00 | 0.00 | 0.00 | 35 | 1001.1 |
| 20260504012708 | 62 | 132 | 0.0 | 1.0 | 0.00 | 0.00 | 0.00 | 35 | 1001.2 |
| 20260504012207 | 62 | 135 | 0.0 | 1.0 | 0.00 | 0.00 | 0.00 | 35 | 1000.8 |
| 20260504011703 | 62 | 134 | 0.0 | 1.0 | 0.00 | 0.00 | 0.00 | 35 | 1000.8 |
| 20260504011200 | 62 | 127 | 0.0 | 0.0 | 0.00 | 0.00 | 0.00 | 34 | 1000.7 |
| 20260504010656 | 63 | 127 | 0.0 | 0.0 | 0.00 | 0.00 | 0.00 | 33 | 1000.8 |
| 20260504010151 | 64 | 128 | 0.0 | 0.0 | 0.00 | 0.00 | 0.00 | 33 | 1000.9 |
| 20260504005649 | 64 | 130 | 0.0 | 1.0 | 0.00 | 0.00 | 0.00 | 32 | 1000.7 |
| 20260504005145 | 64 | 121 | 0.0 | 1.0 | 0.00 | 0.00 | 0.00 | 33 | 1001.3 |
| 20260504004644 | 65 | 144 | 1.0 | 1.0 | 0.00 | 0.00 | 0.00 | 31 | 1001.1 |
| 20260504004140 | 66 | 132 | 0.0 | 1.0 | 0.00 | 0.00 | 0.00 | 30 | 1001.3 |
| 20260504003637 | 66 | 120 | 0.0 | 1.0 | 0.00 | 0.00 | 0.00 | 29 | 1001.2 |
| 20260504003133 | 66 | 105 | 1.0 | 3.0 | 0.00 | 0.00 | 0.00 | 30 | 1001.1 |
| 20260504002630 | 66 | 198 | 1.0 | 3.0 | 0.00 | 0.00 | 0.00 | 29 | 1001.3 |
| 20260504002128 | 66 | 10 | 3.0 | 5.0 | 0.00 | 0.00 | 0.00 | 29 | 1001.5 |
| 20260504001626 | 67 | 134 | 0.0 | 2.0 | 0.00 | 0.00 | 0.00 | 29 | 1001.1 |
| 20260504001121 | 67 | 120 | 0.0 | 3.0 | 0.00 | 0.00 | 0.00 | 29 | 1001.3 |
| 20260504000619 | 67 | 126 | 1.0 | 2.0 | 0.00 | 0.00 | 0.00 | 28 | 1001.2 |
| 20260504000116 | 68 | 96 | 2.0 | 2.0 | 0.00 | 0.00 | 0.00 | 29 | 1001.5 |
| 20260503235614 | 67 | 159 | 1.0 | 3.0 | 0.00 | 0.00 | 0.00 | 29 | 1001.6 |
| 20260503235110 | 67 | 154 | 0.0 | 1.0 | 0.00 | 0.00 | 0.00 | 29 | 1001.5 |
| 20260503234609 | 67 | 136 | 1.0 | 1.0 | 0.00 | 0.00 | 0.00 | 28 | 1001.5 |
| 20260503234106 | 67 | 97 | 2.0 | 2.0 | 0.00 | 0.00 | 0.00 | 27 | 1001.7 |
| 20260503233603 | 68 | 105 | 0.0 | 2.0 | 0.00 | 0.00 | 0.00 | 27 | 1001.5 |
| 20260503233059 | 69 | 104 | 1.0 | 2.0 | 0.00 | 0.00 | 0.00 | 26 | 1001.5 |
| 20260503232556 | 70 | 150 | 1.0 | 3.0 | 0.00 | 0.00 | 0.00 | 26 | 1001.6 |
| 20260503232053 | 70 | 107 | 2.0 | 2.0 | 0.00 | 0.00 | 0.00 | 27 | 1001.9 |
| 20260503231551 | 70 | 119 | 1.0 | 1.0 | 0.00 | 0.00 | 0.00 | 27 | 1001.5 |
| 20260503231047 | 70 | 152 | 1.0 | 2.0 | 0.00 | 0.00 | 0.00 | 28 | 1001.6 |
| 20260503230544 | 71 | 67 | 2.0 | 5.0 | 0.00 | 0.00 | 0.00 | 25 | 1001.6 |
| 20260503230042 | 71 | 149 | 1.0 | 6.0 | 0.00 | 0.00 | 0.00 | 26 | 1001.7 |
| 20260503225538 | 71 | 121 | 0.0 | 3.0 | 0.00 | 0.00 | 0.00 | 24 | 1001.8 |
| 20260503225033 | 70 | 163 | 1.0 | 2.0 | 0.00 | 0.00 | 0.00 | 25 | 1001.8 |
| 20260503224531 | 71 | 157 | 3.0 | 5.0 | 0.00 | 0.00 | 0.00 | 24 | 1002.0 |
| 20260503224028 | 71 | 143 | 0.0 | 2.0 | 0.00 | 0.00 | 0.00 | 26 | 1001.9 |
| 20260503223526 | 71 | 159 | 5.0 | 8.0 | 0.00 | 0.00 | 0.00 | 26 | 1001.8 |
| 20260503223021 | 72 | 125 | 1.0 | 2.0 | 0.00 | 0.00 | 0.00 | 26 | 1001.9 |
| 20260503222520 | 71 | 47 | 2.0 | 3.0 | 0.00 | 0.00 | 0.00 | 24 | 1002.2 |
| 20260503222018 | 71 | 67 | 3.0 | 7.0 | 0.00 | 0.00 | 0.00 | 26 | 1001.9 |
| 20260503221516 | 71 | 148 | 1.0 | 6.0 | 0.00 | 0.00 | 0.00 | 25 | 1001.9 |
| 20260503221013 | 71 | 151 | 1.0 | 3.0 | 0.00 | 0.00 | 0.00 | 24 | 1002.1 |
| 20260503220509 | 71 | 206 | 2.0 | 5.0 | 0.00 | 0.00 | 0.00 | 25 | 1002.1 |
| 20260503220006 | 71 | 51 | 2.0 | 3.0 | 0.00 | 0.00 | 0.00 | 24 | 1002.2 |
| 20260503215503 | 71 | 144 | 3.0 | 5.0 | 0.00 | 0.00 | 0.00 | 24 | 1002.0 |
| 20260503215000 | 71 | 140 | 1.0 | 1.0 | 0.00 | 0.00 | 0.00 | 25 | 1002.2 |
| 20260503214458 | 71 | 24 | 3.0 | 5.0 | 0.00 | 0.00 | 0.00 | 25 | 1002.3 |
| 20260503213955 | 71 | 156 | 1.0 | 1.0 | 0.00 | 0.00 | 0.00 | 23 | 1002.2 |
| 20260503213453 | 70 | 141 | 2.0 | 7.0 | 0.00 | 0.00 | 0.00 | 23 | 1002.5 |
| 20260503212949 | 70 | 118 | 1.0 | 8.0 | 0.00 | 0.00 | 0.00 | 23 | 1002.6 |
| 20260503212447 | 70 | 166 | 1.0 | 3.0 | 0.00 | 0.00 | 0.00 | 24 | 1002.5 |
| 20260503211944 | 71 | 77 | 3.0 | 6.0 | 0.00 | 0.00 | 0.00 | 23 | 1002.5 |
| 20260503211441 | 70 | 43 | 4.0 | 6.0 | 0.00 | 0.00 | 0.00 | 24 | 1002.7 |
| 20260503210936 | 70 | 144 | 2.0 | 3.0 | 0.00 | 0.00 | 0.00 | 25 | 1002.7 |
| 20260503210433 | 70 | 197 | 3.0 | 5.0 | 0.00 | 0.00 | 0.00 | 23 | 1002.7 |
| 20260503205928 | 70 | 24 | 2.0 | 3.0 | 0.00 | 0.00 | 0.00 | 24 | 1002.9 |
| 20260503205425 | 69 | 268 | 6.0 | 9.0 | 0.00 | 0.00 | 0.00 | 23 | 1002.8 |
| 20260503204921 | 70 | 306 | 2.0 | 5.0 | 0.00 | 0.00 | 0.00 | 24 | 1002.8 |
| 20260503204419 | 70 | 146 | 1.0 | 8.0 | 0.00 | 0.00 | 0.00 | 22 | 1003.0 |
| 20260503203916 | 69 | 315 | 4.0 | 6.0 | 0.00 | 0.00 | 0.00 | 23 | 1003.1 |
| 20260503203413 | 70 | 277 | 5.0 | 7.0 | 0.00 | 0.00 | 0.00 | 22 | 1002.9 |
| 20260503202910 | 70 | 83 | 2.0 | 3.0 | 0.00 | 0.00 | 0.00 | 24 | 1002.9 |
| 20260503202408 | 70 | 269 | 3.0 | 6.0 | 0.00 | 0.00 | 0.00 | 23 | 1002.9 |
| 20260503201906 | 70 | 55 | 2.0 | 7.0 | 0.00 | 0.00 | 0.00 | 23 | 1003.0 |
| 20260503201403 | 69 | 325 | 5.0 | 10.0 | 0.00 | 0.00 | 0.00 | 22 | 1003.0 |
| 20260503200901 | 70 | 118 | 2.0 | 8.0 | 0.00 | 0.00 | 0.00 | 22 | 1003.0 |
| 20260503200356 | 70 | 343 | 4.0 | 5.0 | 0.00 | 0.00 | 0.00 | 22 | 1003.1 |
| 20260503195854 | 70 | 305 | 5.0 | 7.0 | 0.00 | 0.00 | 0.00 | 20 | 1003.2 |
| 20260503195350 | 71 | 103 | 2.0 | 5.0 | 0.00 | 0.00 | 0.00 | 21 | 1002.8 |
| 20260503194847 | 70 | 45 | 3.0 | 5.0 | 0.00 | 0.00 | 0.00 | 20 | 1003.1 |
| 20260503194343 | 71 | 54 | 2.0 | 6.0 | 0.00 | 0.00 | 0.00 | 19 | 1003.2 |
| 20260503193840 | 69 | 141 | 1.0 | 7.0 | 0.00 | 0.00 | 0.00 | 21 | 1003.1 |
| 20260503193336 | 69 | 5 | 2.0 | 3.0 | 0.00 | 0.00 | 0.00 | 24 | 1003.3 |
| 20260503192832 | 70 | 87 | 2.0 | 6.0 | 0.00 | 0.00 | 0.00 | 22 | 1003.4 |
| 20260503192327 | 70 | 54 | 4.0 | 7.0 | 0.00 | 0.00 | 0.00 | 22 | 1003.2 |
| 20260503191824 | 70 | 64 | 5.0 | 8.0 | 0.00 | 0.00 | 0.00 | 23 | 1003.2 |
| 20260503191321 | 70 | 333 | 2.0 | 3.0 | 0.00 | 0.00 | 0.00 | 24 | 1003.3 |
| 20260503190818 | 69 | 228 | 1.0 | 6.0 | 0.00 | 0.00 | 0.00 | 24 | 1003.5 |
| 20260503190315 | 70 | 87 | 2.0 | 7.0 | 0.00 | 0.00 | 0.00 | 23 | 1003.5 |
| 20260503185812 | 69 | 60 | 3.0 | 6.0 | 0.00 | 0.00 | 0.00 | 27 | 1003.3 |
| 20260503185307 | 69 | 15 | 6.0 | 10.0 | 0.00 | 0.00 | 0.00 | 25 | 1003.6 |
| 20260503184802 | 69 | 69 | 3.0 | 9.0 | 0.00 | 0.00 | 0.00 | 27 | 1003.6 |
| 20260503184258 | 67 | 340 | 1.0 | 7.0 | 0.00 | 0.00 | 0.00 | 28 | 1003.6 |
| 20260503183754 | 68 | 301 | 5.0 | 8.0 | 0.00 | 0.00 | 0.00 | 28 | 1003.4 |
| 20260503183252 | 69 | 2 | 4.0 | 7.0 | 0.00 | 0.00 | 0.00 | 27 | 1003.6 |
| 20260503182749 | 69 | 33 | 4.0 | 7.0 | 0.00 | 0.00 | 0.00 | 29 | 1003.5 |
| 20260503182248 | 68 | 231 | 5.0 | 7.0 | 0.00 | 0.00 | 0.00 | 29 | 1003.6 |
| 20260503181744 | 68 | 173 | 4.0 | 9.0 | 0.00 | 0.00 | 0.00 | 29 | 1003.5 |
| 20260503181242 | 69 | 84 | 2.0 | 8.0 | 0.00 | 0.00 | 0.00 | 29 | 1003.8 |
| 20260503180738 | 68 | 93 | 4.0 | 9.0 | 0.00 | 0.00 | 0.00 | 30 | 1003.9 |
| 20260503180236 | 68 | 18 | 4.0 | 8.0 | 0.00 | 0.00 | 0.00 | 33 | 1003.6 |
| 20260503175732 | 69 | 41 | 6.0 | 8.0 | 0.00 | 0.00 | 0.00 | 34 | 1003.7 |
| 20260503175231 | 69 | 130 | 1.0 | 6.0 | 0.00 | 0.00 | 0.00 | 34 | 1003.8 |
| 20260503174726 | 70 | 142 | 2.0 | 7.0 | 0.00 | 0.00 | 0.00 | 34 | 1003.8 |
| 20260503174224 | 69 | 206 | 2.0 | 6.0 | 0.00 | 0.00 | 0.00 | 37 | 1003.7 |
| 20260503173719 | 68 | 280 | 5.0 | 9.0 | 0.00 | 0.00 | 0.00 | 37 | 1003.8 |
| 20260503173215 | 69 | 307 | 2.0 | 6.0 | 0.00 | 0.00 | 0.00 | 36 | 1003.8 |
| 20260503172712 | 69 | 310 | 9.0 | 15.0 | 0.00 | 0.00 | 0.00 | 36 | 1003.7 |
| 20260503172209 | 69 | 226 | 5.0 | 7.0 | 0.00 | 0.00 | 0.00 | 34 | 1003.8 |
| 20260503171705 | 69 | 71 | 1.0 | 3.0 | 0.00 | 0.00 | 0.00 | 36 | 1004.0 |
| 20260503171203 | 69 | 20 | 4.0 | 8.0 | 0.00 | 0.00 | 0.00 | 34 | 1004.0 |
| 20260503170700 | 69 | 218 | 1.0 | 6.0 | 0.00 | 0.00 | 0.00 | 35 | 1004.1 |
| 20260503170157 | 68 | 7 | 3.0 | 7.0 | 0.00 | 0.00 | 0.00 | 36 | 1004.2 |
| 20260503160118 | 67 | 70 | 3.0 | 5.0 | 0.00 | 0.00 | 0.00 | 42 | 1003.9 |
| 20260503150543 | 64 | 55 | 2.0 | 3.0 | 0.00 | 0.00 | 0.00 | 46 | 1003.7 |
| 20260503130933 | 55 | 150 | 0.0 | 1.0 | 0.00 | 0.00 | 0.00 | 60 | 1003.3 |
| 20260503130431 | 54 | 148 | 0.0 | 2.0 | 0.00 | 0.00 | 0.00 | 61 | 1003.5 |
| 20260503110823 | 49 | 144 | 0.0 | 1.0 | 0.00 | 0.00 | 0.00 | 67 | 1002.5 |
| 20260503110320 | 49 | 144 | 0.0 | 1.0 | 0.00 | 0.00 | 0.00 | 67 | 1002.3 |
| 20260503100246 | 49 | 154 | 0.0 | 1.0 | 0.00 | 0.00 | 0.00 | 66 | 1002.5 |
| 20260503090206 | 52 | 135 | 1.0 | 2.0 | 0.00 | 0.00 | 0.00 | 59 | 1002.8 |
| 20260503081636 | 53 | 139 | 1.0 | 2.0 | 0.00 | 0.00 | 0.00 | 57 | 1003.0 |
| 20260503081133 | 53 | 140 | 1.0 | 2.0 | 0.00 | 0.00 | 0.00 | 57 | 1003.3 |
| 20260503080629 | 54 | 144 | 1.0 | 1.0 | 0.00 | 0.00 | 0.00 | 57 | 1003.3 |
| 20260503080126 | 54 | 156 | 1.0 | 2.0 | 0.00 | 0.00 | 0.00 | 56 | 1003.3 |
| 20260503072603 | 54 | 100 | 0.0 | 0.0 | 0.00 | 0.00 | 0.00 | 55 | 1004.1 |
| 20260503072100 | 54 | 99 | 0.0 | 1.0 | 0.00 | 0.00 | 0.00 | 55 | 1003.8 |
| 20260503071556 | 54 | 104 | 0.0 | 1.0 | 0.00 | 0.00 | 0.00 | 56 | 1004.1 |
| 20260503071053 | 54 | 142 | 0.0 | 0.0 | 0.00 | 0.00 | 0.00 | 57 | 1004.1 |
| 20260503070550 | 54 | 142 | 0.0 | 0.0 | 0.00 | 0.00 | 0.00 | 56 | 1003.8 |
| 20260503055003 | 56 | 147 | 3.0 | 5.0 | 0.00 | 0.00 | 0.00 | 52 | 1004.5 |
| 20260503054459 | 56 | 160 | 3.0 | 5.0 | 0.00 | 0.00 | 0.00 | 51 | 1004.5 |
| 20260503053957 | 56 | 141 | 2.0 | 3.0 | 0.00 | 0.00 | 0.00 | 52 | 1004.4 |
| 20260503053455 | 56 | 136 | 3.0 | 5.0 | 0.00 | 0.00 | 0.00 | 51 | 1004.6 |
| 20260503052951 | 56 | 131 | 2.0 | 3.0 | 0.00 | 0.00 | 0.00 | 52 | 1005.0 |
| 20260503052449 | 57 | 151 | 3.0 | 3.0 | 0.00 | 0.00 | 0.00 | 51 | 1004.7 |
| 20260503051945 | 57 | 160 | 2.0 | 3.0 | 0.00 | 0.00 | 0.00 | 50 | 1004.7 |